| time (UTC) | temp C | wind direction | speed KPH | gust KPH | rain 1hr cm | rain 24hr cm | rain mn cm | humidity % | barometer mb |
| 20260906231805 | 16 | 72 | 0.0 | 3.2 | 0.00 | 0.41 | 0.15 | 76 | 1022.5 |
| 20260906231306 | 15 | 64 | 1.6 | 4.8 | 0.00 | 0.41 | 0.15 | 78 | 1022.8 |
| 20260906230805 | 15 | 94 | 0.0 | 4.8 | 0.00 | 0.41 | 0.15 | 81 | 1022.9 |
| 20260906230306 | 15 | 77 | 1.6 | 3.2 | 0.00 | 0.41 | 0.15 | 81 | 1023.0 |
| 20260906225805 | 15 | 121 | 0.0 | 3.2 | 0.00 | 0.41 | 0.15 | 80 | 1022.9 |
| 20260906225307 | 15 | 67 | 1.6 | 4.8 | 0.00 | 0.41 | 0.15 | 77 | 1022.8 |
| 20260906224806 | 15 | 127 | 1.6 | 4.8 | 0.00 | 0.41 | 0.15 | 77 | 1022.7 |
| 20260906224305 | 15 | 103 | 0.0 | 1.6 | 0.00 | 0.41 | 0.15 | 78 | 1022.8 |
| 20260906223805 | 15 | 89 | 0.0 | 3.2 | 0.00 | 0.41 | 0.15 | 78 | 1022.9 |
| 20260906222805 | 14 | 135 | 1.6 | 4.8 | 0.00 | 0.41 | 0.15 | 79 | 1023.0 |
| 20260906222306 | 14 | 196 | 1.6 | 4.8 | 0.00 | 0.41 | 0.15 | 78 | 1023.2 |
| 20260906221805 | 15 | 234 | 0.0 | 3.2 | 0.00 | 0.41 | 0.15 | 78 | 1023.2 |
| 20260906221306 | 15 | 193 | 1.6 | 8.0 | 0.00 | 0.41 | 0.15 | 77 | 1023.2 |
| 20260906220305 | 15 | 185 | 0.0 | 3.2 | 0.00 | 0.41 | 0.15 | 77 | 1023.1 |
| 20260906215806 | 15 | 215 | 0.0 | 3.2 | 0.00 | 0.41 | 0.15 | 78 | 1023.1 |
| 20260906215307 | 15 | 216 | 0.0 | 3.2 | 0.00 | 0.41 | 0.15 | 79 | 1023.2 |
| 20260906214805 | 15 | 189 | 1.6 | 4.8 | 0.00 | 0.41 | 0.15 | 77 | 1023.2 |
| 20260906214305 | 15 | 182 | 1.6 | 8.0 | 0.00 | 0.41 | 0.15 | 76 | 1023.3 |
| 20260906213306 | 15 | 60 | 1.6 | 3.2 | 0.00 | 0.41 | 0.15 | 78 | 1023.1 |
| 20260906212805 | 15 | 56 | 0.0 | 1.6 | 0.00 | 0.41 | 0.15 | 79 | 1023.1 |
| 20260906212306 | 15 | 59 | 0.0 | 1.6 | 0.00 | 0.41 | 0.15 | 81 | 1023.2 |
| 20260906211805 | 15 | 58 | 0.0 | 8.0 | 0.00 | 0.41 | 0.15 | 80 | 1023.2 |
| 20260906211306 | 15 | 109 | 0.0 | 4.8 | 0.00 | 0.43 | 0.15 | 81 | 1023.4 |
| 20260906210805 | 15 | 205 | 1.6 | 3.2 | 0.00 | 0.43 | 0.15 | 80 | 1023.4 |
| 20260906210305 | 14 | 116 | 0.0 | 3.2 | 0.00 | 0.43 | 0.15 | 81 | 1023.3 |
| 20260906205806 | 14 | 40 | 1.6 | 3.2 | 0.00 | 0.46 | 0.15 | 83 | 1023.3 |
| 20260906205306 | 14 | 125 | 0.0 | 1.6 | 0.00 | 0.46 | 0.15 | 83 | 1023.3 |
| 20260906204305 | 14 | 345 | 0.0 | 3.2 | 0.00 | 0.46 | 0.15 | 85 | 1023.5 |
| 20260906203806 | 13 | 159 | 0.0 | 3.2 | 0.00 | 0.46 | 0.15 | 86 | 1023.6 |
| 20260906203306 | 13 | 51 | 1.6 | 4.8 | 0.00 | 0.46 | 0.15 | 88 | 1023.6 |
| 20260906202805 | 13 | 51 | 1.6 | 8.0 | 0.00 | 0.46 | 0.15 | 89 | 1024.1 |
| 20260906202306 | 13 | 74 | 1.6 | 3.2 | 0.00 | 0.48 | 0.15 | 88 | 1024.1 |
| 20260906201305 | 13 | 76 | 1.6 | 3.2 | 0.00 | 0.51 | 0.15 | 90 | 1024.2 |
| 20260906195805 | 12 | 102 | 1.6 | 3.2 | 0.00 | 0.53 | 0.15 | 90 | 1024.3 |
| 20260906195307 | 12 | 100 | 0.0 | 8.0 | 0.00 | 0.56 | 0.15 | 92 | 1024.3 |
| 20260906194805 | 12 | 60 | 1.6 | 8.0 | 0.00 | 0.56 | 0.15 | 92 | 1024.4 |
| 20260906194306 | 12 | 58 | 1.6 | 4.8 | 0.00 | 0.56 | 0.15 | 93 | 1024.4 |
| 20260906193805 | 12 | 52 | 1.6 | 8.0 | 0.00 | 0.56 | 0.15 | 93 | 1024.7 |
| 20260906193305 | 12 | 99 | 1.6 | 8.0 | 0.00 | 0.56 | 0.15 | 94 | 1024.5 |
| 20260906192805 | 12 | 84 | 1.6 | 8.0 | 0.00 | 0.56 | 0.15 | 93 | 1024.7 |
| 20260906192307 | 12 | 99 | 1.6 | 3.2 | 0.00 | 0.56 | 0.15 | 94 | 1024.7 |
| 20260906191305 | 11 | 50 | 1.6 | 8.0 | 0.00 | 0.56 | 0.15 | 93 | 1024.8 |
| 20260906190805 | 11 | 77 | 1.6 | 4.8 | 0.00 | 0.56 | 0.15 | 93 | 1024.8 |
| 20260906190305 | 12 | 50 | 1.6 | 3.2 | 0.00 | 0.56 | 0.15 | 94 | 1025.0 |
| 20260906185805 | 11 | 52 | 0.0 | 9.7 | 0.00 | 0.56 | 0.15 | 94 | 1024.9 |
| 20260906185306 | 11 | 30 | 1.6 | 4.8 | 0.00 | 0.56 | 0.15 | 94 | 1025.0 |
| 20260906184807 | 11 | 22 | 0.0 | 9.7 | 0.00 | 0.56 | 0.15 | 94 | 1025.1 |
| 20260906184306 | 11 | 74 | 1.6 | 9.7 | 0.00 | 0.56 | 0.15 | 94 | 1025.3 |
| 20260906183806 | 11 | 73 | 1.6 | 8.0 | 0.00 | 0.56 | 0.15 | 94 | 1025.2 |
| 20260906183305 | 11 | 61 | 1.6 | 3.2 | 0.00 | 0.56 | 0.15 | 94 | 1025.3 |
| 20260906182806 | 11 | 123 | 1.6 | 4.8 | 0.00 | 0.56 | 0.15 | 94 | 1025.3 |
| 20260906182306 | 11 | 87 | 3.2 | 9.7 | 0.03 | 0.56 | 0.15 | 94 | 1025.4 |
| 20260906181804 | 11 | 57 | 3.2 | 9.7 | 0.03 | 0.56 | 0.15 | 94 | 1025.4 |
| 20260906181305 | 11 | 43 | 1.6 | 3.2 | 0.03 | 0.56 | 0.15 | 94 | 1025.4 |
| 20260906180806 | 11 | 107 | 1.6 | 8.0 | 0.03 | 0.56 | 0.15 | 94 | 1025.5 |
| 20260906180305 | 11 | 76 | 3.2 | 4.8 | 0.03 | 0.56 | 0.15 | 93 | 1025.3 |
| 20260906175805 | 11 | 81 | 0.0 | 3.2 | 0.03 | 0.56 | 0.15 | 94 | 1025.5 |
| 20260906175306 | 11 | 71 | 1.6 | 4.8 | 0.03 | 0.56 | 0.15 | 94 | 1025.4 |
| 20260906174806 | 11 | 62 | 1.6 | 8.0 | 0.03 | 0.56 | 0.15 | 94 | 1025.7 |
| 20260906174305 | 10 | 56 | 3.2 | 9.7 | 0.03 | 0.56 | 0.15 | 95 | 1025.7 |
| 20260906173805 | 10 | 53 | 1.6 | 4.8 | 0.03 | 0.56 | 0.15 | 95 | 1025.7 |
| 20260906173306 | 10 | 72 | 0.0 | 4.8 | 0.03 | 0.56 | 0.15 | 95 | 1025.8 |
| 20260906172806 | 10 | 91 | 0.0 | 3.2 | 0.03 | 0.56 | 0.15 | 95 | 1025.9 |
| 20260906172306 | 10 | 91 | 1.6 | 4.8 | 0.00 | 0.53 | 0.13 | 95 | 1026.2 |
| 20260906171805 | 10 | 51 | 3.2 | 8.0 | 0.00 | 0.53 | 0.13 | 95 | 1026.1 |
| 20260906171306 | 10 | 60 | 3.2 | 4.8 | 0.00 | 0.53 | 0.13 | 95 | 1026.0 |
| 20260906170806 | 10 | 48 | 1.6 | 4.8 | 0.00 | 0.53 | 0.13 | 95 | 1026.0 |
| 20260906170305 | 10 | 72 | 1.6 | 4.8 | 0.00 | 0.53 | 0.13 | 94 | 1026.1 |
| 20260906165805 | 10 | 75 | 3.2 | 4.8 | 0.00 | 0.53 | 0.13 | 94 | 1026.2 |
| 20260906165306 | 10 | 65 | 0.0 | 3.2 | 0.00 | 0.53 | 0.13 | 94 | 1026.3 |
| 20260906163805 | 10 | 65 | 1.6 | 4.8 | 0.00 | 0.53 | 0.13 | 92 | 1026.7 |
| 20260906162806 | 10 | 76 | 0.0 | 3.2 | 0.00 | 0.53 | 0.13 | 92 | 1026.5 |
| 20260906162306 | 10 | 61 | 0.0 | 3.2 | 0.00 | 0.53 | 0.13 | 92 | 1026.5 |
| 20260906161805 | 10 | 105 | 0.0 | 3.2 | 0.00 | 0.53 | 0.13 | 92 | 1026.6 |
| 20260906161305 | 10 | 65 | 0.0 | 3.2 | 0.00 | 0.53 | 0.13 | 92 | 1026.6 |
| 20260906160806 | 10 | 44 | 0.0 | 3.2 | 0.00 | 0.53 | 0.13 | 92 | 1026.6 |
| 20260906160305 | 10 | 117 | 0.0 | 1.6 | 0.00 | 0.53 | 0.13 | 92 | 1026.7 |
| 20260906155805 | 10 | 118 | 0.0 | 1.6 | 0.00 | 0.53 | 0.13 | 91 | 1026.6 |
| 20260906155307 | 10 | 42 | 0.0 | 1.6 | 0.00 | 0.53 | 0.13 | 92 | 1026.5 |
| 20260906154805 | 10 | 39 | 0.0 | 1.6 | 0.00 | 0.53 | 0.13 | 91 | 1026.4 |
| 20260906153805 | 10 | 38 | 0.0 | 1.6 | 0.00 | 0.53 | 0.13 | 92 | 1026.5 |
| 20260906153306 | 10 | 35 | 0.0 | 3.2 | 0.00 | 0.53 | 0.13 | 92 | 1026.6 |
| 20260906152805 | 10 | 34 | 0.0 | 1.6 | 0.00 | 0.53 | 0.13 | 92 | 1026.4 |
| 20260906152307 | 10 | 34 | 0.0 | 1.6 | 0.00 | 0.53 | 0.13 | 92 | 1026.7 |
| 20260906151805 | 10 | 239 | 0.0 | 0.0 | 0.00 | 0.53 | 0.13 | 92 | 1026.8 |
| 20260906151306 | 10 | 239 | 0.0 | 0.0 | 0.00 | 0.53 | 0.13 | 92 | 1026.7 |
| 20260906150805 | 10 | 239 | 0.0 | 0.0 | 0.00 | 0.53 | 0.13 | 92 | 1026.5 |
| 20260906150305 | 10 | 239 | 0.0 | 0.0 | 0.00 | 0.53 | 0.13 | 92 | 1026.7 |
| 20260906145805 | 10 | 239 | 0.0 | 0.0 | 0.00 | 0.53 | 0.13 | 92 | 1026.6 |
| 20260906145307 | 10 | 239 | 0.0 | 0.0 | 0.00 | 0.53 | 0.13 | 91 | 1026.5 |
| 20260906142805 | 10 | 239 | 0.0 | 0.0 | 0.00 | 0.53 | 0.13 | 94 | 1026.6 |
| 20260906142306 | 10 | 239 | 0.0 | 0.0 | 0.00 | 0.53 | 0.13 | 94 | 1026.6 |
| 20260906141805 | 9 | 239 | 0.0 | 0.0 | 0.00 | 0.53 | 0.13 | 94 | 1026.7 |
| 20260906141306 | 9 | 239 | 0.0 | 0.0 | 0.00 | 0.53 | 0.13 | 95 | 1026.9 |
| 20260906140305 | 9 | 237 | 0.0 | 1.6 | 0.00 | 0.53 | 0.13 | 95 | 1026.7 |
| 20260906135805 | 9 | 234 | 0.0 | 0.0 | 0.00 | 0.53 | 0.13 | 95 | 1026.9 |
| 20260906135306 | 9 | 234 | 0.0 | 1.6 | 0.00 | 0.53 | 0.13 | 95 | 1026.9 |
| 20260906134805 | 9 | 234 | 0.0 | 1.6 | 0.00 | 0.53 | 0.13 | 95 | 1026.8 |
| 20260906134305 | 9 | 202 | 0.0 | 1.6 | 0.00 | 0.53 | 0.13 | 95 | 1026.9 |
| 20260906133806 | 9 | 178 | 0.0 | 1.6 | 0.03 | 0.53 | 0.13 | 95 | 1026.9 |
| 20260906133305 | 9 | 177 | 0.0 | 0.0 | 0.03 | 0.53 | 0.13 | 95 | 1026.8 |
| 20260906132306 | 9 | 177 | 0.0 | 1.6 | 0.05 | 0.53 | 0.13 | 95 | 1027.0 |
| 20260906131805 | 9 | 177 | 0.0 | 1.6 | 0.08 | 0.53 | 0.13 | 95 | 1027.1 |
| 20260906131304 | 9 | 177 | 0.0 | 0.0 | 0.08 | 0.53 | 0.13 | 95 | 1027.1 |
| 20260906130805 | 9 | 177 | 0.0 | 0.0 | 0.08 | 0.53 | 0.13 | 95 | 1026.9 |
| 20260906130305 | 9 | 177 | 0.0 | 0.0 | 0.10 | 0.53 | 0.13 | 95 | 1026.7 |
| 20260906124805 | 9 | 177 | 0.0 | 1.6 | 0.13 | 0.53 | 0.13 | 95 | 1027.0 |
| 20260906123806 | 9 | 175 | 0.0 | 0.0 | 0.10 | 0.51 | 0.10 | 95 | 1027.3 |
| 20260906123305 | 9 | 175 | 0.0 | 0.0 | 0.10 | 0.51 | 0.10 | 95 | 1027.4 |
| 20260906122805 | 9 | 175 | 0.0 | 1.6 | 0.10 | 0.51 | 0.10 | 95 | 1027.3 |
| 20260906122306 | 9 | 175 | 0.0 | 0.0 | 0.08 | 0.48 | 0.08 | 95 | 1027.2 |
| 20260906121806 | 9 | 175 | 0.0 | 1.6 | 0.05 | 0.46 | 0.05 | 95 | 1027.3 |
| 20260906121305 | 9 | 175 | 0.0 | 3.2 | 0.05 | 0.46 | 0.05 | 95 | 1027.3 |
| 20260906120805 | 9 | 170 | 1.6 | 3.2 | 0.05 | 0.46 | 0.05 | 96 | 1027.5 |
| 20260906120305 | 9 | 168 | 0.0 | 1.6 | 0.03 | 0.43 | 0.03 | 95 | 1027.8 |
| 20260906115805 | 9 | 168 | 0.0 | 1.6 | 0.00 | 0.41 | 0.00 | 95 | 1028.0 |
| 20260906114805 | 9 | 168 | 0.0 | 1.6 | 0.00 | 0.41 | 0.00 | 95 | 1028.2 |
| 20260906114305 | 9 | 168 | 1.6 | 3.2 | 0.00 | 0.41 | 0.00 | 95 | 1028.3 |
| 20260906113806 | 9 | 182 | 1.6 | 3.2 | 0.00 | 0.41 | 0.00 | 95 | 1028.2 |
| 20260906113305 | 9 | 173 | 0.0 | 1.6 | 0.00 | 0.41 | 0.00 | 95 | 1028.1 |
| 20260906112805 | 9 | 176 | 0.0 | 0.0 | 0.00 | 0.41 | 0.00 | 95 | 1028.3 |
| 20260906112307 | 9 | 176 | 0.0 | 1.6 | 0.00 | 0.41 | 0.00 | 95 | 1028.2 |
| 20260906111806 | 9 | 177 | 0.0 | 1.6 | 0.00 | 0.41 | 0.00 | 95 | 1028.5 |
| 20260906111305 | 9 | 177 | 1.6 | 1.6 | 0.00 | 0.41 | 0.00 | 95 | 1028.6 |
| 20260906110805 | 9 | 178 | 1.6 | 1.6 | 0.00 | 0.41 | 0.00 | 95 | 1028.5 |
| 20260906110306 | 9 | 177 | 0.0 | 3.2 | 0.00 | 0.41 | 0.00 | 95 | 1028.5 |
| 20260906105805 | 9 | 117 | 0.0 | 1.6 | 0.00 | 0.41 | 0.00 | 95 | 1028.5 |
| 20260906105306 | 9 | 113 | 0.0 | 1.6 | 0.00 | 0.41 | 0.00 | 95 | 1028.7 |
| 20260906102805 | 9 | 59 | 0.0 | 1.6 | 0.00 | 0.41 | 0.00 | 95 | 1028.2 |
| 20260906101805 | 9 | 59 | 0.0 | 0.0 | 0.00 | 0.41 | 0.00 | 95 | 1028.2 |
| 20260906100805 | 9 | 58 | 0.0 | 3.2 | 0.00 | 0.41 | 0.00 | 94 | 1028.6 |
| 20260906100306 | 9 | 43 | 0.0 | 1.6 | 0.00 | 0.41 | 0.00 | 94 | 1028.1 |
| 20260906095805 | 9 | 354 | 0.0 | 3.2 | 0.00 | 0.41 | 0.00 | 94 | 1028.1 |
| 20260906094805 | 9 | 85 | 0.0 | 1.6 | 0.00 | 0.41 | 0.00 | 94 | 1028.5 |
| 20260906094306 | 9 | 89 | 1.6 | 3.2 | 0.00 | 0.41 | 0.00 | 94 | 1028.4 |
| 20260906093805 | 9 | 61 | 1.6 | 3.2 | 0.00 | 0.41 | 0.00 | 94 | 1028.6 |
| 20260906093305 | 9 | 55 | 1.6 | 4.8 | 0.00 | 0.41 | 0.00 | 94 | 1028.6 |
| 20260906092805 | 9 | 50 | 1.6 | 1.6 | 0.00 | 0.41 | 0.00 | 95 | 1028.7 |
| 20260906092306 | 9 | 50 | 0.0 | 3.2 | 0.00 | 0.41 | 0.00 | 95 | 1028.9 |
| 20260906091306 | 9 | 48 | 0.0 | 0.0 | 0.00 | 0.41 | 0.00 | 95 | 1028.7 |
| 20260906090806 | 9 | 49 | 0.0 | 1.6 | 0.00 | 0.41 | 0.00 | 95 | 1028.8 |
| 20260906090305 | 9 | 9 | 0.0 | 1.6 | 0.00 | 0.41 | 0.00 | 95 | 1028.8 |
| 20260906085805 | 9 | 247 | 0.0 | 0.0 | 0.00 | 0.41 | 0.00 | 95 | 1028.7 |
| 20260906085307 | 9 | 247 | 0.0 | 0.0 | 0.00 | 0.41 | 0.00 | 95 | 1028.8 |
| 20260906084806 | 9 | 246 | 0.0 | 0.0 | 0.00 | 0.41 | 0.00 | 95 | 1029.3 |
| 20260906084305 | 9 | 246 | 0.0 | 0.0 | 0.00 | 0.41 | 0.00 | 95 | 1029.3 |
| 20260906083804 | 9 | 246 | 0.0 | 0.0 | 0.00 | 0.41 | 0.00 | 95 | 1029.3 |
| 20260906083305 | 9 | 246 | 0.0 | 0.0 | 0.00 | 0.41 | 0.00 | 95 | 1029.4 |
| 20260906082806 | 9 | 246 | 0.0 | 0.0 | 0.00 | 0.41 | 0.00 | 94 | 1029.3 |
| 20260906082306 | 9 | 246 | 0.0 | 0.0 | 0.00 | 0.41 | 0.00 | 94 | 1029.5 |
| 20260906081805 | 9 | 246 | 0.0 | 0.0 | 0.00 | 0.41 | 0.00 | 94 | 1029.6 |
| 20260906081305 | 9 | 246 | 0.0 | 0.0 | 0.00 | 0.41 | 0.00 | 94 | 1029.7 |
| 20260906080806 | 9 | 246 | 0.0 | 1.6 | 0.00 | 0.41 | 0.00 | 94 | 1029.7 |
| 20260906080305 | 9 | 246 | 0.0 | 1.6 | 0.00 | 0.41 | 0.00 | 94 | 1029.6 |
| 20260906075805 | 9 | 343 | 0.0 | 0.0 | 0.00 | 0.41 | 0.00 | 94 | 1029.5 |
| 20260906075306 | 9 | 343 | 0.0 | 0.0 | 0.00 | 0.41 | 0.00 | 94 | 1029.5 |
| 20260906074805 | 9 | 343 | 0.0 | 0.0 | 0.00 | 0.41 | 0.00 | 94 | 1029.5 |
| 20260906074305 | 9 | 343 | 0.0 | 0.0 | 0.00 | 0.41 | 0.00 | 94 | 1029.4 |
| 20260906073804 | 9 | 343 | 0.0 | 0.0 | 0.00 | 0.41 | 0.00 | 94 | 1029.5 |
| 20260906073305 | 9 | 343 | 0.0 | 1.6 | 0.00 | 0.41 | 0.00 | 94 | 1029.5 |
| 20260906072306 | 9 | 343 | 0.0 | 0.0 | 0.00 | 0.41 | 0.00 | 94 | 1029.8 |
| 20260906071806 | 9 | 343 | 0.0 | 1.6 | 0.00 | 0.41 | 0.00 | 94 | 1029.6 |
| 20260906071305 | 9 | 343 | 0.0 | 0.0 | 0.00 | 0.41 | 0.00 | 94 | 1029.8 |
| 20260906070806 | 9 | 343 | 0.0 | 0.0 | 0.00 | 0.41 | 0.00 | 94 | 1029.9 |
| 20260906065805 | 9 | 343 | 0.0 | 0.0 | 0.00 | 0.41 | 0.00 | 94 | 1030.1 |
| 20260906065306 | 9 | 343 | 0.0 | 0.0 | 0.00 | 0.41 | 0.00 | 94 | 1030.0 |
| 20260906064806 | 9 | 343 | 0.0 | 0.0 | 0.00 | 0.41 | 0.00 | 94 | 1030.0 |
| 20260906064305 | 9 | 343 | 0.0 | 0.0 | 0.00 | 0.41 | 0.00 | 94 | 1029.9 |
| 20260906063805 | 9 | 343 | 0.0 | 0.0 | 0.00 | 0.41 | 0.00 | 94 | 1029.7 |
| 20260906063305 | 9 | 342 | 0.0 | 1.6 | 0.03 | 0.41 | 0.00 | 94 | 1029.9 |
| 20260906062806 | 9 | 343 | 0.0 | 0.0 | 0.03 | 0.41 | 0.00 | 94 | 1029.8 |
| 20260906062306 | 9 | 343 | 0.0 | 1.6 | 0.03 | 0.41 | 0.00 | 94 | 1029.7 |
| 20260906061805 | 9 | 343 | 0.0 | 1.6 | 0.03 | 0.41 | 0.00 | 94 | 1029.7 |
| 20260906060819 | 9 | 343 | 0.0 | 1.6 | 0.03 | 0.41 | 0.00 | 94 | 1030.0 |
| 20260906060306 | 9 | 345 | 0.0 | 1.6 | 0.03 | 0.41 | 0.00 | 94 | 1029.7 |
| 20260906055805 | 9 | 277 | 0.0 | 1.6 | 0.03 | 0.41 | 0.41 | 94 | 1029.8 |
| 20260906054805 | 9 | 277 | 0.0 | 1.6 | 0.03 | 0.41 | 0.41 | 94 | 1029.9 |
| 20260906054306 | 9 | 277 | 0.0 | 1.6 | 0.03 | 0.41 | 0.41 | 94 | 1030.0 |
| 20260906053805 | 9 | 276 | 0.0 | 1.6 | 0.03 | 0.41 | 0.41 | 94 | 1030.1 |
| 20260906053305 | 9 | 276 | 0.0 | 1.6 | 0.00 | 0.38 | 0.38 | 94 | 1030.0 |
| 20260906052804 | 9 | 277 | 0.0 | 1.6 | 0.00 | 0.38 | 0.38 | 94 | 1029.9 |
| 20260906051805 | 9 | 277 | 0.0 | 1.6 | 0.00 | 0.38 | 0.38 | 93 | 1030.0 |
| 20260906051305 | 9 | 277 | 1.6 | 3.2 | 0.00 | 0.38 | 0.38 | 93 | 1029.9 |
| 20260906050806 | 9 | 249 | 1.6 | 4.8 | 0.00 | 0.38 | 0.38 | 93 | 1030.0 |
| 20260906045805 | 10 | 264 | 0.0 | 1.6 | 0.00 | 0.38 | 0.38 | 93 | 1030.0 |
| 20260906045306 | 10 | 262 | 1.6 | 3.2 | 0.00 | 0.38 | 0.38 | 93 | 1030.0 |
| 20260906044805 | 10 | 258 | 0.0 | 1.6 | 0.00 | 0.38 | 0.38 | 93 | 1030.1 |
| 20260906044305 | 10 | 256 | 0.0 | 1.6 | 0.00 | 0.38 | 0.38 | 93 | 1030.1 |
| 20260906043805 | 10 | 256 | 0.0 | 1.6 | 0.00 | 0.38 | 0.38 | 93 | 1030.1 |
| 20260906043305 | 10 | 256 | 0.0 | 0.0 | 0.00 | 0.38 | 0.38 | 93 | 1030.1 |
| 20260906042806 | 10 | 256 | 0.0 | 1.6 | 0.00 | 0.38 | 0.38 | 93 | 1030.2 |
| 20260906042306 | 10 | 256 | 0.0 | 1.6 | 0.00 | 0.38 | 0.38 | 93 | 1030.1 |
| 20260906041805 | 10 | 14 | 0.0 | 1.6 | 0.00 | 0.38 | 0.38 | 93 | 1030.1 |
| 20260906040805 | 10 | 15 | 0.0 | 1.6 | 0.00 | 0.38 | 0.38 | 93 | 1030.0 |
| 20260906035805 | 9 | 15 | 0.0 | 1.6 | 0.00 | 0.38 | 0.38 | 93 | 1029.9 |
| 20260906035306 | 10 | 15 | 1.6 | 3.2 | 0.00 | 0.38 | 0.38 | 93 | 1029.9 |
| 20260906034805 | 10 | 10 | 0.0 | 1.6 | 0.00 | 0.38 | 0.38 | 93 | 1029.8 |
| 20260906034305 | 9 | 11 | 0.0 | 3.2 | 0.00 | 0.38 | 0.38 | 93 | 1029.9 |
| 20260906033805 | 9 | 12 | 0.0 | 1.6 | 0.00 | 0.38 | 0.38 | 93 | 1029.9 |
| 20260906033305 | 9 | 12 | 0.0 | 3.2 | 0.00 | 0.38 | 0.38 | 93 | 1029.6 |
| 20260906032806 | 9 | 35 | 0.0 | 1.6 | 0.00 | 0.38 | 0.38 | 93 | 1029.5 |
| 20260906031805 | 9 | 17 | 0.0 | 4.8 | 0.00 | 0.38 | 0.38 | 93 | 1029.6 |
| 20260906030806 | 9 | 358 | 1.6 | 3.2 | 0.00 | 0.38 | 0.38 | 94 | 1029.6 |
| 20260906030305 | 9 | 348 | 1.6 | 3.2 | 0.00 | 0.38 | 0.38 | 94 | 1029.6 |
| 20260906025306 | 9 | 8 | 1.6 | 8.0 | 0.00 | 0.38 | 0.38 | 93 | 1029.6 |
| 20260906024805 | 9 | 346 | 0.0 | 3.2 | 0.03 | 0.38 | 0.38 | 93 | 1029.6 |
| 20260906024305 | 9 | 8 | 0.0 | 3.2 | 0.03 | 0.38 | 0.38 | 93 | 1029.6 |
| 20260906023805 | 9 | 26 | 1.6 | 8.0 | 0.03 | 0.38 | 0.38 | 93 | 1029.6 |
| 20260906023306 | 9 | 347 | 1.6 | 8.0 | 0.03 | 0.38 | 0.38 | 94 | 1029.5 |
| 20260906022805 | 9 | 8 | 1.6 | 4.8 | 0.05 | 0.38 | 0.38 | 94 | 1029.6 |
| 20260906022307 | 9 | 344 | 3.2 | 4.8 | 0.05 | 0.38 | 0.38 | 94 | 1029.4 |
| 20260906021805 | 9 | 353 | 3.2 | 8.0 | 0.05 | 0.38 | 0.38 | 94 | 1029.4 |
| 20260906021305 | 9 | 1 | 0.0 | 4.8 | 0.05 | 0.38 | 0.38 | 94 | 1029.6 |
| 20260906020805 | 9 | 356 | 1.6 | 4.8 | 0.08 | 0.38 | 0.38 | 94 | 1029.7 |
| 20260906020305 | 9 | 358 | 1.6 | 3.2 | 0.08 | 0.38 | 0.38 | 94 | 1029.7 |
| 20260906015805 | 9 | 2 | 1.6 | 3.2 | 0.08 | 0.38 | 0.38 | 94 | 1029.8 |
| 20260906015306 | 9 | 343 | 1.6 | 3.2 | 0.08 | 0.38 | 0.38 | 94 | 1029.6 |
| 20260906014305 | 9 | 324 | 1.6 | 3.2 | 0.05 | 0.36 | 0.36 | 93 | 1029.7 |
| 20260906013804 | 9 | 266 | 1.6 | 3.2 | 0.05 | 0.36 | 0.36 | 93 | 1029.6 |
| 20260906013306 | 9 | 271 | 0.0 | 3.2 | 0.05 | 0.36 | 0.36 | 93 | 1029.5 |
| 20260906012805 | 10 | 271 | 0.0 | 1.6 | 0.03 | 0.33 | 0.33 | 93 | 1029.5 |
| 20260906011805 | 10 | 247 | 0.0 | 1.6 | 0.05 | 0.33 | 0.33 | 93 | 1029.6 |
| 20260906011306 | 10 | 251 | 1.6 | 3.2 | 0.05 | 0.33 | 0.33 | 93 | 1029.6 |
| 20260906010805 | 10 | 343 | 1.6 | 8.0 | 0.05 | 0.30 | 0.30 | 93 | 1029.3 |
| 20260906010305 | 10 | 342 | 1.6 | 8.0 | 0.08 | 0.30 | 0.30 | 93 | 1029.3 |
| 20260906005805 | 10 | 0 | 0.0 | 3.2 | 0.08 | 0.30 | 0.30 | 93 | 1029.4 |
| 20260906005306 | 9 | 357 | 1.6 | 4.8 | 0.10 | 0.30 | 0.30 | 93 | 1029.5 |
| 20260906004805 | 10 | 359 | 1.6 | 3.2 | 0.10 | 0.30 | 0.30 | 93 | 1029.3 |
| 20260906004305 | 10 | 351 | 0.0 | 3.2 | 0.13 | 0.30 | 0.30 | 93 | 1029.3 |
| 20260906003806 | 9 | 8 | 1.6 | 4.8 | 0.13 | 0.30 | 0.30 | 93 | 1029.3 |
| 20260906003305 | 9 | 343 | 3.2 | 4.8 | 0.13 | 0.30 | 0.30 | 93 | 1029.4 |
| 20260906002805 | 9 | 348 | 1.6 | 3.2 | 0.15 | 0.30 | 0.30 | 93 | 1029.3 |
| 20260906002306 | 9 | 5 | 0.0 | 3.2 | 0.15 | 0.30 | 0.30 | 93 | 1029.5 |
| 20260906001306 | 9 | 21 | 0.0 | 3.2 | 0.13 | 0.28 | 0.28 | 93 | 1029.4 |
| 20260906000805 | 10 | 336 | 1.6 | 3.2 | 0.10 | 0.25 | 0.25 | 93 | 1029.5 |
| 20260906000304 | 9 | 271 | 1.6 | 1.6 | 0.08 | 0.23 | 0.23 | 93 | 1029.3 |
| 20260905234805 | 9 | 335 | 1.6 | 4.8 | 0.05 | 0.20 | 0.20 | 93 | 1029.5 |
| 20260905234305 | 9 | 340 | 1.6 | 4.8 | 0.03 | 0.18 | 0.18 | 93 | 1029.6 |
| 20260905233805 | 9 | 9 | 0.0 | 1.6 | 0.03 | 0.18 | 0.18 | 93 | 1029.5 |
| 20260905233305 | 9 | 5 | 0.0 | 3.2 | 0.03 | 0.18 | 0.18 | 93 | 1029.5 |
| 20260905232805 | 9 | 3 | 1.6 | 3.2 | 0.00 | 0.15 | 0.15 | 92 | 1029.3 |